Location: Aciu?a
(46.2833°N, 22.4500°E)
Time: 13:38:27
(UTC+00:00)

Cosmos 1892 - Pass Details

Date: 25 October 2021
Orbit: 501 x 522 km, 82.5° (Epoch: 06 December)

Event Time Altitude Azimuth Distance (km) Brightness Sun altitude
Rises 16:54:18 0° 354° (N) 2,617 6.3 -15.8°
Reaches altitude 10° 16:56:28 10° 358° (N) 1,724 5.4 -16.2°
Maximum altitude 17:00:12 61° 79° (E) 577 2.6 -16.8°
Drops below altitude 10° 17:03:54 10° 160° (SSE) 1,705 5.1 -17.4°
Enters shadow 17:04:33 - 162° (SSE) 1,968 5.5 -17.5°
